Location: Newark
(52.3500°N, 175.9667°E)
Time: 01:44:30
(UTC+00:00)

Vanguard 1 Rocket - All Passes

Search period start: 21 April 2021 00:00
Search period end: 01 May 2021 00:00
Orbit: 653 x 4223 km, 34.3° (Epoch: 20 April)

Date Brightness Start Highest point End Pass type
(mag) Time Alt. Az. Time Alt. Az. Time Alt. Az.
24 Apr - 01:21:36 10° S 01:22:36 10° S 01:23:32 10° SSE daylight
25 Apr - 00:10:29 10° S 00:11:56 11° S 00:13:17 10° SSE daylight
26 Apr - 01:22:49 10° SSW 01:25:19 12° S 01:27:28 10° SSE daylight
27 Apr - 00:10:58 10° SSW 00:14:40 14° S 00:17:40 10° SSE daylight
27 Apr - 22:59:22 10° SSW 23:03:49 14° S 23:07:20 10° SE daylight
28 Apr - 01:24:45 10° SW 01:28:00 14° S 01:30:41 10° SSE daylight
28 Apr - 21:48:24 10° S 21:52:41 13° SSE 21:56:10 10° SE daylight
29 Apr - 00:12:23 10° SW 00:17:23 17° S 00:21:09 10° SE daylight
29 Apr - 20:40:10 10° SSE 20:41:17 10° SSE 20:42:20 10° SSE daylight
29 Apr - 23:00:07 10° SSW 23:06:32 18° S 23:11:09 10° SE daylight
30 Apr - 01:26:58 10° SW 01:30:39 14° SSW 01:33:37 10° SSE daylight
30 Apr - 21:48:05 10° SSW 21:55:22 17° SSE 22:00:38 10° SE daylight
